Tracking 22456 objects as of 7-Mar-2021
HD Live streaming from Space Station
objects crossing your sky now

TITAN 4 R/B

Track TITAN 4 R/B now!
10-day predictions


NORAD ID: 20642
Int'l Code: 1990-050E
Perigee: 441.5 km
Apogee: 1,774.9 km
Inclination: 63.3 °
Period: 107.3 minutes
Semi major axis: 7479 km
RCS: Unknown
Launch date: June 8, 1990
Source: United States (US)
Launch site: AIR FORCE EASTERN TEST RANGE (AFETR)

Note: This is a ROCKET BODY
aabbcc
Your satellite tracking list
Your tracking list is empty




NASA's NSSDC Master Catalog

Two Line Element Set (TLE):
1 20642U 90050E   21058.78062714 0.00000700  00000-0  94787-4 0    08
2 20642  63.3148 285.7810 0891433  47.7917 312.2083 13.42204502    07
Source of the keplerian elements: McCants